カタログに戻る

STARLINK-36737

運用中通信SSO
NORAD 67740·PAYLOAD·🇺🇸 United States

打ち上げ Feb 11, 2026 から Vandenberg Space Force Base

Loading…

次のパス (今後24時間)

TLE

最新Source: CelesTrak SupGP

元期: Sep 15, 2026, 03:54 UTC

1 67740C 26026V   26258.16298611 -.00042274  00000+0 -13123-2 0  2587
2 67740  97.2838 310.1138 0001012  88.1632 334.6104 15.33461365    11

AllMySatでSTARLINK-36737をリアルタイム追跡

Download on the App Store